Location: Kershaw
(34.5481°N, 80.5823°W)
Time: 09:13:17
(UTC+00:00)

Altair - Pass Details

Date: 11 October 2022
Orbit: 1501 x 1682 km, 47.2° (Epoch: 08 December)

Event Time Altitude Azimuth Distance (km) Brightness Sun altitude
Rises 15:24:17 0° 302° (WNW) 4,894 9.7 41.5°
Reaches altitude 10° 15:27:32 10° 298° (WNW) 3,920 9.3 41.9°
Maximum altitude 15:37:04 50° 227° (SW) 2,064 8.9 43.0°
Drops below altitude 10° 15:46:39 10° 156° (SSE) 3,923 10.7 44.0°
Sets 15:49:56 0° 151° (SSE) 4,898 10.9 44.3°
